DW0999 Weather Reports


Display with metric or nautical units.
time (UTC)temp
F
wind
direction
speed
MPH
gust
MPH
rain 1hr
in
rain 24hr
in
rain mn
in
humidity
%
barometer
mb
20200227014527 33 241 4.0 10.0 0.00 0.15 0.00 91 1007.6
20200227013026 33 276 5.0 11.0 0.00 0.15 0.00 90 1007.7
20200227011526 33 259 6.0 12.0 0.00 0.17 0.00 89 1007.5
20200227010025 33 241 6.0 12.0 0.00 0.17 0.00 87 1007.5
20200227004525 34 266 6.0 13.0 0.00 0.17 0.00 87 1007.3
20200227003025 34 257 4.0 10.0 0.00 0.17 0.00 86 1007.3
20200227001526 34 243 4.0 11.0 0.00 0.17 0.00 86 1007.3
20200227000024 34 207 5.0 9.0 0.00 0.17 0.00 85 1007.2
20200226234523 34 195 5.0 10.0 0.00 0.17 0.00 85 1007.1
20200226233025 35 180 4.0 9.0 0.01 0.17 0.00 83 1006.9
20200226231523 35 209 5.0 10.0 0.01 0.17 0.00 83 1006.8
20200226230135 35 257 4.0 12.0 0.01 0.18 0.00 83 1006.8
20200226224524 35 252 6.0 13.0 0.01 0.18 0.18 83 1006.8
20200226223023 35 199 5.0 13.0 0.00 0.17 0.17 83 1006.7
20200226221525 35 226 8.0 13.0 0.00 0.17 0.17 83 1006.5
20200226220029 35 250 6.0 14.0 0.00 0.17 0.17 84 1006.4
20200226214526 35 200 7.0 20.0 0.00 0.17 0.17 84 1006.2
20200226213023 35 266 7.0 14.0 0.00 0.17 0.17 85 1006.2
20200226211523 35 258 7.0 14.0 0.00 0.17 0.17 86 1006.0
20200226210024 34 314 7.0 17.0 0.00 0.17 0.17 86 1006.1
20200226204524 34 279 4.0 12.0 0.00 0.17 0.17 87 1006.0
20200226203023 34 259 3.0 9.0 0.00 0.17 0.17 87 1006.0
20200226201525 34 240 2.0 7.0 0.00 0.17 0.17 87 1005.6
20200226200037 34 279 5.0 12.0 0.00 0.17 0.17 87 1005.4
20200226194523 34 195 2.0 6.0 0.00 0.17 0.17 89 1005.3
20200226193025 34 186 1.0 7.0 0.00 0.20 0.17 88 1005.2
20200226191523 34 247 4.0 10.0 0.00 0.22 0.17 87 1004.9
20200226190027 35 258 2.0 13.0 0.00 0.22 0.17 86 1004.8
20200226184523 35 237 6.0 12.0 0.00 0.22 0.17 85 1004.7
20200226183022 35 237 5.0 11.0 0.00 0.22 0.17 84 1004.4
20200226181526 35 199 7.0 12.0 0.00 0.22 0.17 83 1004.2
20200226180022 35 269 4.0 9.0 0.00 0.22 0.17 83 1003.8
20200226174524 35 289 4.0 17.0 0.00 0.22 0.17 83 1003.6
20200226173023 35 235 5.0 11.0 0.00 0.22 0.17 83 1003.3
20200226171522 35 255 4.0 13.0 0.00 0.22 0.17 85 1003.1
20200226170103 35 183 6.0 12.0 0.00 0.22 0.17 85 1003.0
20200226164522 35 268 6.0 14.0 0.00 0.22 0.17 84 1002.7
20200226163022 36 255 7.0 14.0 0.00 0.22 0.17 81 1002.5
20200226161524 37 259 6.0 16.0 0.00 0.22 0.17 77 1002.4
20200226160023 37 272 4.0 16.0 0.00 0.22 0.17 73 1001.9
20200226154522 38 190 7.0 15.0 0.00 0.22 0.17 70 1001.8
20200226153023 38 235 6.0 16.0 0.00 0.22 0.17 69 1001.3
20200226151521 39 283 8.0 13.0 0.00 0.22 0.17 67 1001.2
20200226150021 38 237 8.0 15.0 0.00 0.22 0.17 69 1001.0
20200226144524 38 231 9.0 20.0 0.00 0.22 0.17 70 1000.9
20200226143021 38 255 8.0 16.0 0.00 0.22 0.17 71 1000.9
20200226141521 38 233 7.0 17.0 0.00 0.22 0.17 71 1000.7
20200226140046 37 241 8.0 20.0 0.00 0.22 0.17 71 1000.3
20200226134520 38 303 7.0 21.0 0.00 0.22 0.17 71 1000.1
20200226133022 37 233 8.0 28.0 0.00 0.23 0.17 73 999.8
20200226131527 37 268 13.0 23.0 0.01 0.23 0.17 74 999.6
20200226130026 37 259 8.0 19.0 0.01 0.23 0.17 79 999.3
20200226124521 36 286 8.0 21.0 0.01 0.24 0.17 83 999.0
20200226123021 36 282 11.0 26.0 0.01 0.24 0.17 84 998.7
20200226121522 39 262 8.0 21.0 0.00 0.23 0.17 76 998.3
20200226120002 39 251 7.0 23.0 0.00 0.24 0.17 74 998.1
20200226114521 40 245 9.0 23.0 0.00 0.24 0.17 69 997.9
20200226113021 40 258 10.0 24.0 0.00 0.25 0.17 67 997.7
20200226111521 41 248 12.0 23.0 0.00 0.25 0.17 64 997.6
20200226110102 41 213 7.0 17.0 0.00 0.26 0.17 65 997.6
20200226104523 41 230 10.0 29.0 0.00 0.26 0.17 65 997.5
20200226103022 41 255 12.0 23.0 0.00 0.26 0.17 65 997.5
20200226101502 41 251 7.0 19.0 0.00 0.26 0.17 67 997.5
20200226100021 40 310 7.0 17.0 0.00 0.26 0.17 68 997.4
20200226094522 40 188 8.0 17.0 0.01 0.26 0.17 71 997.4
20200226093024 39 257 8.0 19.0 0.01 0.26 0.17 70 997.5
20200226090021 39 179 7.0 17.0 0.02 0.26 0.17 75 997.5
20200226084523 39 202 6.0 18.0 0.01 0.25 0.16 75 997.6
20200226083002 38 190 6.0 13.0 0.02 0.25 0.16 78 997.7
20200226081502 38 255 7.0 20.0 0.02 0.25 0.16 79 997.8
20200226080016 37 243 6.0 15.0 0.02 0.24 0.15 80 997.8
20200226074526 37 264 6.0 20.0 0.02 0.24 0.15 80 998.0
20200226073023 36 262 6.0 15.0 0.01 0.24 0.14 81 998.1
20200226071502 35 250 5.0 11.0 0.01 0.24 0.14 82 998.0
20200226070002 35 223 4.0 13.0 0.00 0.23 0.13 83 997.9
20200226064524 35 216 7.0 16.0 0.00 0.23 0.13 83 997.9
20200226063002 35 185 6.0 16.0 0.00 0.23 0.13 84 997.8
20200226061501 35 257 9.0 22.0 0.00 0.23 0.13 85 997.7
20200226060001 35 220 7.0 14.0 0.00 0.23 0.13 88 997.6
20200226054501 34 210 5.0 11.0 0.00 0.23 0.13 89 997.8
20200226053001 34 252 7.0 13.0 0.01 0.23 0.13 91 997.7
20200226051500 34 258 7.0 20.0 0.01 0.23 0.13 91 997.7
20200226045959 35 258 13.0 21.0 0.02 0.23 0.13 88 997.8
20200226044500 36 240 7.0 18.0 0.02 0.23 0.13 87 997.6
20200226042958 35 220 5.0 15.0 0.02 0.22 0.13 89 997.4
20200226041459 35 247 10.0 19.0 0.02 0.22 0.13 89 997.2
20200226035958 35 248 7.0 14.0 0.04 0.21 0.12 91 997.1
20200226034457 35 204 4.0 9.0 0.05 0.20 0.11 91 996.6
20200226032957 35 216 3.0 16.0 0.05 0.20 0.11 91 996.5
20200226031457 35 223 6.0 21.0 0.05 0.20 0.10 92 996.6
20200226025956 34 254 7.0 20.0 0.04 0.17 0.08 93 997.1
20200226024456 35 203 2.0 6.0 0.03 0.16 0.06 92 996.8
20200226022956 35 271 1.0 3.0 0.03 0.16 0.06 91 996.1
20200226021456 35 298 1.0 11.0 0.05 0.15 0.06 90 996.2
20200226015955 37 272 6.0 16.0 0.03 0.13 0.04 87 996.5